Weather History for KSGS - May, 2014

Change the Weather History Date:

Tuesday, May 13, 2014

  Actual Average (KMSP) Record (KMSP)
Temperature  
Mean Temperature 52 °F 58 °F  
Max Temperature 55 °F 69 °F 92 °F (2007)
Min Temperature 47 °F 48 °F 29 °F (1953)
Degree Days  
Heating Degree Days 14 8  
Month to date heating degree days 120  
Since 1 July heating degree days 7438  
Cooling Degree Days 0 1  
Month to date cooling degree days 11  
Year to date cooling degree days 16  
Growing Degree Days 2 (Base 50)    
Moisture  
Dew Point 39 °F    
Average Humidity 63    
Maximum Humidity 95    
Minimum Humidity 46    
Precipitation  
Precipitation 0.00 in 0.10 in 0.98 in (1962)
Month to date precipitation 1.42  
Year to date precipitation 7.64  
Snow  
Snow 0.00 in 0.00 in T in (1902)
Month to date snowfall 0.0  
Since 1 July snowfall 54.4  
Snow Depth -    
Sea Level Pressure  
Sea Level Pressure 30.02 in    
Wind  
Wind Speed 10 mph (WNW)    
Max Wind Speed 17 mph    
Max Gust Speed 25 mph    
Visibility 10 miles    
Events      
T = Trace of Precipitation, MM = Missing Value Source: NWS Daily Summary

Daily Weather History Graph

Daily Weather History Graph

Search for Another Location

Airport or City:

Trip Planner

Search our weather history database for the weather conditions in past years. The results will help you decide how hot, cold, wet, or windy it might be!

Date:

Astronomy

May. 13, 2014 Rise Set
Actual Time 5:45 AM CDT 8:31 PM CDT
Civil Twilight 5:11 AM CDT 9:05 PM CDT
Nautical Twilight 4:29 AM CDT 9:48 PM CDT
Astronomical Twilight 3:39 AM CDT 10:38 PM CDT
Moon 7:31 PM CDT (5/13) 5:07 AM CDT (5/13)
Length of Visible Light 15h 53m
Length of Day
14h 46m
Waxing Gibbous, 99% of the Moon is Illuminated
May 13
Waxing Gibbous
May 14
Full
May 21
Last Quarter
May 28
New
Jun 5
First Quarter

Hourly Weather History & Observations

Time (CDT) Temp. Dew Point Humidity Pressure Visibility Wind Dir Wind Speed Gust Speed Precip Events Conditions
12:12 AM 50.9 °F 49.5 °F 95% 29.80 in 10.0 mi WNW 8.1 mph - N/A   Overcast
12:32 AM 51.3 °F 50.0 °F 95% 29.80 in 10.0 mi West 8.1 mph 16.1 mph N/A   Overcast
1:12 AM 51.8 °F 47.8 °F 86% 29.81 in 10.0 mi West 10.4 mph - N/A   Overcast
1:32 AM 52.0 °F 47.7 °F 85% 29.82 in 10.0 mi West 8.1 mph - N/A   Overcast
1:52 AM 52.0 °F 47.3 °F 84% 29.82 in 10.0 mi West 9.2 mph - N/A   Overcast
2:32 AM 51.4 °F 47.3 °F 86% 29.85 in 5.0 mi West 9.2 mph - N/A   Haze
2:52 AM 51.3 °F 46.0 °F 82% 29.85 in 10.0 mi West 10.4 mph 18.4 mph N/A   Overcast
3:12 AM 51.4 °F 44.8 °F 78% 29.85 in 10.0 mi West 9.2 mph - N/A   Overcast
3:32 AM 51.3 °F 43.9 °F 76% 29.86 in 10.0 mi West 11.5 mph 17.3 mph N/A   Overcast
3:52 AM 51.1 °F 43.0 °F 74% 29.86 in 10.0 mi West 9.2 mph 18.4 mph N/A   Overcast
4:12 AM 50.9 °F 43.0 °F 74% 29.87 in 10.0 mi WNW 9.2 mph 17.3 mph N/A   Overcast
4:32 AM 50.4 °F 43.7 °F 78% 29.87 in 10.0 mi WNW 9.2 mph - N/A   Overcast
4:52 AM 50.4 °F 43.0 °F 76% 29.87 in 10.0 mi WNW 10.4 mph - N/A   Overcast
5:12 AM 50.4 °F 42.3 °F 74% 29.88 in 10.0 mi WNW 10.4 mph 17.3 mph N/A   Overcast
5:32 AM 50.4 °F 42.6 °F 75% 29.88 in 10.0 mi West 8.1 mph 16.1 mph N/A   Overcast
5:52 AM 50.2 °F 41.9 °F 73% 29.90 in 10.0 mi West 10.4 mph 19.6 mph N/A   Overcast
6:12 AM 50.0 °F 40.6 °F 70% 29.91 in 10.0 mi WNW 12.7 mph 19.6 mph N/A   Overcast
6:32 AM 50.0 °F 40.3 °F 69% 29.92 in 10.0 mi WNW 9.2 mph 17.3 mph N/A   Overcast
6:52 AM 50.0 °F 40.8 °F 71% 29.94 in 10.0 mi West 9.2 mph - N/A   Overcast
7:12 AM 50.0 °F 40.5 °F 70% 29.94 in 10.0 mi WNW 10.4 mph 17.3 mph N/A   Overcast
8:12 AM 50.4 °F 40.3 °F 68% 29.96 in 10.0 mi WNW 12.7 mph 17.3 mph N/A   Overcast
8:32 AM 50.4 °F 39.7 °F 67% 29.96 in 10.0 mi WNW 15.0 mph 18.4 mph N/A   Overcast
8:52 AM 50.4 °F 39.2 °F 66% 29.97 in 10.0 mi NW 12.7 mph 20.7 mph N/A   Overcast
9:12 AM 50.4 °F 38.8 °F 65% 29.98 in 10.0 mi WNW 17.3 mph 25.3 mph N/A   Overcast
9:52 AM 50.4 °F 38.5 °F 64% 29.99 in 10.0 mi NW 12.7 mph 25.3 mph N/A   Overcast
11:32 AM 51.3 °F 38.3 °F 61% 30.03 in 10.0 mi NW 11.5 mph - N/A   Overcast
11:52 AM 52.0 °F 38.8 °F 61% 30.04 in 10.0 mi WNW 10.4 mph - N/A   Overcast
12:32 PM 51.8 °F 37.8 °F 59% 30.06 in 10.0 mi WNW 10.4 mph - N/A   Overcast
12:52 PM 52.2 °F 37.8 °F 58% 30.06 in 10.0 mi NW 13.8 mph 19.6 mph N/A   Overcast
1:12 PM 52.9 °F 37.8 °F 56% 30.06 in 10.0 mi NW 11.5 mph 18.4 mph N/A   Overcast
1:32 PM 53.4 °F 37.4 °F 55% 30.07 in 10.0 mi NW 13.8 mph 19.6 mph N/A   Overcast
1:52 PM 54.1 °F 37.9 °F 54% 30.07 in 10.0 mi NW 13.8 mph 23.0 mph N/A   Overcast
2:12 PM 53.1 °F 39.2 °F 59% 30.08 in 10.0 mi WNW 13.8 mph 18.4 mph N/A   Overcast
2:32 PM 54.5 °F 39.7 °F 57% 30.08 in 10.0 mi WNW 15.0 mph 19.6 mph N/A   Overcast
2:52 PM 54.9 °F 39.7 °F 57% 30.09 in 10.0 mi WNW 12.7 mph 18.4 mph N/A   Overcast
3:12 PM 54.5 °F 38.1 °F 54% 30.09 in 10.0 mi West 17.3 mph 21.9 mph N/A   Overcast
3:32 PM 54.5 °F 38.1 °F 54% 30.09 in 10.0 mi WNW 16.1 mph 21.9 mph N/A   Overcast
3:52 PM 54.1 °F 38.3 °F 55% 30.09 in 10.0 mi NW 15.0 mph 21.9 mph N/A   Overcast
4:12 PM 54.1 °F 37.4 °F 53% 30.10 in 10.0 mi WNW 12.7 mph 19.6 mph N/A   Overcast
4:32 PM 54.1 °F 37.6 °F 54% 30.10 in 10.0 mi West 15.0 mph 23.0 mph N/A   Overcast
4:52 PM 54.0 °F 37.8 °F 54% 30.11 in 10.0 mi WNW 12.7 mph - N/A   Overcast
5:12 PM 54.3 °F 36.7 °F 51% 30.11 in 10.0 mi WNW 16.1 mph 20.7 mph N/A   Overcast
5:32 PM 54.5 °F 36.1 °F 50% 30.11 in 10.0 mi WNW 13.8 mph 19.6 mph N/A   Overcast
5:52 PM 54.7 °F 36.0 °F 49% 30.11 in 10.0 mi West 10.4 mph - N/A   Overcast
6:12 PM 54.5 °F 34.0 °F 46% 30.11 in 10.0 mi WNW 12.7 mph 18.4 mph N/A   Overcast
6:32 PM 55.4 °F 35.1 °F 46% 30.11 in 10.0 mi WNW 12.7 mph 19.6 mph N/A   Overcast
6:52 PM 54.9 °F 34.7 °F 47% 30.11 in 10.0 mi WNW 15.0 mph 19.6 mph N/A   Overcast
7:12 PM 54.9 °F 34.7 °F 47% 30.12 in 10.0 mi NW 12.7 mph 23.0 mph N/A   Overcast
7:32 PM 54.5 °F 35.6 °F 49% 30.12 in 10.0 mi NW 13.8 mph 20.7 mph N/A   Overcast
7:52 PM 54.3 °F 35.4 °F 49% 30.13 in 10.0 mi NW 10.4 mph 18.4 mph N/A   Mostly Cloudy
8:12 PM 53.6 °F 35.2 °F 50% 30.14 in 10.0 mi NW 8.1 mph - N/A   Scattered Clouds
8:32 PM 53.2 °F 35.6 °F 51% 30.14 in 10.0 mi NW 9.2 mph - N/A   Mostly Cloudy
8:52 PM 52.7 °F 33.8 °F 49% 30.15 in 10.0 mi WNW 6.9 mph - N/A   Clear
9:12 PM 52.2 °F 34.9 °F 52% 30.15 in 10.0 mi West 3.5 mph - N/A   Scattered Clouds
9:52 PM 52.5 °F 35.2 °F 52% 30.17 in 10.0 mi WNW 10.4 mph 17.3 mph N/A   Mostly Cloudy
10:12 PM 51.8 °F 35.1 °F 53% 30.17 in 10.0 mi WNW 5.8 mph - N/A   Scattered Clouds
10:32 PM 50.4 °F 35.1 °F 56% 30.17 in 10.0 mi WNW 6.9 mph - N/A   Clear
10:52 PM 50.0 °F 35.2 °F 57% 30.17 in 10.0 mi West 5.8 mph - N/A   Clear
11:12 PM 49.1 °F 35.1 °F 58% 30.17 in 10.0 mi West 4.6 mph - N/A   Clear
11:32 PM 48.6 °F 35.1 °F 60% 30.18 in 10.0 mi West 4.6 mph - N/A   Clear
11:52 PM 47.7 °F 35.4 °F 63% 30.18 in 10.0 mi West 4.6 mph - N/A   Clear